Location: Lecco
(45.8566°N, 9.3977°E)
Time: 22:09:50
(UTC+02:00)

Courier 1B Rocket - Pass Details

Date: 31 August 2019
Orbit: 920 x 1202 km, 28.2° (Epoch: 19 October)

Event Time Altitude Azimuth Distance (km) Brightness Sun altitude
Rises 02:50:13 0° 235° (SW) 3,691 - -31.9°
Reaches altitude 10° 02:53:46 10° 217° (SW) 2,794 - -31.7°
Maximum altitude 02:58:03 18° 177° (S) 2,340 - -31.3°
Drops below altitude 10° 03:02:31 10° 138° (SE) 2,929 - -31.0°
Exits shadow 03:04:15 - 129° (SE) 3,350 7.7 -30.8°
Sets 03:06:22 0° 120° (ESE) 3,943 8.2 -30.6°
